Location: Los Gatos B&B
(42.6926°N, 77.0646°W)
Time: 12:38:21
(UTC-05:00)

Daily predictions for brighter satellites

Satellite Brightness Start Highest point End
(mag) Time Altitude Azimuth Time Altitude Azimuth Time Altitude Azimuth
ALOS 3.0 17:34:37 10° SE 17:38:40 30° ENE 17:42:45 10° N
Cosmos 1328 4.1 17:39:29 10° SSE 17:43:20 47° E 17:47:13 10° NNE
Cosmos 1943 Rocket 3.1 17:38:19 10° NNW 17:43:45 54° WSW 17:49:07 10° S
Cosmos 2369 Rocket 4.1 17:38:47 10° NW 17:43:54 36° WSW 17:49:01 10° S
ERS-2 3.7 17:42:14 10° ESE 17:44:31 16° ENE 17:46:48 10° NNE
Cosmos 1777 Rocket 4.1 17:40:20 10° NNW 17:45:29 54° ENE 17:50:37 10° SE
CSL-04 Rocket 4.0 17:40:01 10° S 17:45:34 75° WSW 17:51:05 10° NNW
Cosmos 1400 Rocket 3.4 17:43:26 10° SSW 17:47:27 62° W 17:51:34 10° N
Cosmos 1408 Rocket 3.9 17:43:53 10° SSE 17:47:56 42° E 17:52:01 10° NNE
Cosmos 1300 2.8 17:45:45 10° N 17:49:36 85° W 17:53:24 10° S
Cosmos 1076 Rocket 3.6 17:45:42 10° S 17:50:04 84° W 17:54:28 10° N
Cosmos 2181 Rocket 4.3 17:44:34 10° S 17:51:01 79° W 17:57:27 10° N
IRS-1A Rocket 4.2 17:47:07 10° SSE 17:52:37 69° ENE 17:58:15 10° N
Cosmos 1340 4.5 17:53:26 10° NE 17:54:57 12° ENE 17:56:08 11° E
SPOT 3 Rocket 4.0 17:52:34 10° SE 17:57:17 38° ENE 18:02:02 10° N
Tiangong 1 2.1 17:55:42 10° W 17:57:59 32° SSW 18:00:15 10° SE
Lacrosse 5 3.8 17:57:27 10° SE 17:59:40 13° ESE 18:01:41 10° E
Cosmos 1703 4.0 17:56:30 10° SSE 18:00:04 33° E 18:03:40 10° NNE
SL-8 Rocket 4.2 17:53:52 10° N 18:00:05 81° W 18:06:19 10° S
USA 116 4.2 17:55:58 10° NNE 18:00:27 86° ESE 18:05:25 10° SSW
COSMO-SKYMED 1 2.7 17:56:29 10° NNE 18:00:45 52° E 18:04:59 10° S
Geosat 4.0 17:56:13 10° NNE 18:01:16 88° WNW 18:06:18 10° SSW
Meteor 2-8 Rocket 4.4 17:56:42 10° S 18:02:49 78° E 18:09:01 10° N
CZ-2C R/B 3.7 17:58:28 10° NNE 18:03:12 80° ESE 18:07:48 10° S
BREEZE-M DEB (TANK) 2.2 17:59:23 10° WSW 18:04:52 78° NNW 18:06:52 16° ENE
FENGYUN 3A 3.7 18:00:15 10° SSE 18:05:27 56° ENE 18:10:42 10° N
MOS 1 4.3 18:00:34 10° SSE 18:06:06 60° ENE 18:11:39 10° N
SeaSat 1 4.0 18:03:57 10° S 18:08:34 40° WSW 18:13:13 10° NW
Meteor 2-2 Rocket 4.2 18:03:24 10° N 18:09:09 83° E 18:14:48 10° S
Cosmos 2218 Rocket 4.1 18:05:01 10° N 18:11:11 80° W 18:17:18 10° S
NOSS 3 (A) 4.4 18:09:50 10° SSW 18:12:35 73° ESE 18:14:50 16° NE
METEOR-M 4.3 18:08:47 10° S 18:14:08 79° WSW 18:19:32 10° NNW
NOSS 3-4 (A) 4.0 18:08:17 10° NW 18:15:22 83° WSW 18:22:58 10° SSE
NOSS 3-4 (C) 4.0 18:08:24 10° NW 18:15:29 84° WSW 18:23:05 10° SSE
Cosmos 1743 Rocket 3.8 18:13:08 10° SSE 18:17:15 43° E 18:21:22 10° NNE
Cosmos 1328 Rocket 3.5 18:13:48 10° N 18:18:09 62° E 18:22:25 10° SSE
Cosmos 44 3.7 18:14:12 10° SW 18:18:26 54° NW 18:22:50 10° NNE
TIMED 4.5 18:17:52 10° NNW 18:22:14 62° ENE 18:26:33 10° SSE
Cosmos 2228 Rocket 3.2 18:18:06 10° N 18:22:36 53° E 18:27:05 10° SSE
Cosmos 371 Rocket 3.5 18:21:08 10° S 18:25:44 48° ESE 18:29:49 13° NNE
Cosmos 2098 Rocket 3.9 18:27:28 10° N 18:33:01 84° E 18:39:50 10° S
PKM 3.6 18:30:28 10° NW 18:33:09 57° NE 18:35:47 20° ESE
Cosmos 1241 Rocket 4.4 18:27:15 10° NNW 18:33:30 87° ENE 18:39:47 10° SSE
Envisat 4.2 18:36:31 22° NE 18:36:31 22° NE 18:39:42 10° NNE
DMSP B5D1-3 4.4 18:34:09 10° NNE 18:39:16 75° ESE 18:44:21 10° S
Cosmos 2058 2.8 18:35:58 10° S 18:40:08 79° E 18:44:22 10° N
BREEZE-M R/B 3.8 18:39:04 10° WNW 18:40:46 22° N 18:40:46 22° N
H-2A R/B 2.6 18:40:43 10° SSE 18:44:29 63° ENE 18:48:20 10° N
Cosmos 1570 Rocket 4.0 18:39:24 10° S 18:44:36 59° ESE 18:48:25 18° NNE
Meteor 1-27 4.5 18:40:19 10° NNW 18:46:02 74° W 18:51:48 10° S
Cosmos 1455 2.2 18:42:50 10° N 18:46:42 84° W 18:50:30 10° S
Cosmos 1151 Rocket 2.9 18:42:25 10° N 18:46:51 81° E 18:51:13 10° S
COSMOS 2406 3.2 18:41:32 10° SSW 18:47:15 85° WNW 18:52:44 11° NNE
GEOS 3 Rocket 4.3 18:47:06 30° ENE 18:48:43 37° NE 18:53:37 10° NNW
Cosmos 1821 Rocket 3.9 18:43:05 10° N 18:49:13 64° E 18:55:23 10° SSE
Cosmos 1833 Rocket 4.3 18:45:19 10° SE 18:47:19 17° SE 18:47:19 17° SE
Cosmos 1346 Rocket 4.0 18:46:02 10° NNW 18:49:45 43° W 18:53:25 10° SSW
Cosmos 1535 Rocket 4.5 18:44:54 10° N 18:50:57 55° E 18:56:54 10° SSE
Cosmos 2369 4.3 18:46:20 10° N 18:51:34 35° ENE 18:52:29 33° ENE
CZ-4 R/B 4.3 18:48:55 10° SW 18:52:05 20° W 18:55:16 10° NW
Cosmos 1656 4.3 18:49:56 10° N 18:54:46 32° NE 18:54:46 32° NE
Cosmos 1626 4.1 18:52:46 10° SW 18:56:02 29° WNW 18:59:20 10° NNW
Cosmos 1697 Rocket 3.9 18:55:36 10° N 18:59:05 24° NNE 18:59:05 24° NNE
RESURS DK-1 3.7 18:58:00 10° N 19:00:14 25° NNE 19:00:14 25° NNE
SL-27 R/B 3.9 18:59:16 10° S 19:00:56 25° SSE 19:00:56 25° SSE
FengYun 1-2 T 4.2 18:58:15 10° SSE 19:03:52 87° ENE 19:09:30 10° NNW
Nadezhda 3 Rocket 4.2 18:57:56 10° SSW 19:04:15 76° W 19:10:39 10° N
Cosmos 1937 Rocket 3.9 19:01:42 10° N 19:06:18 42° NE 19:06:18 42° NE
ERBS 2.9 19:04:52 10° NW 19:07:28 49° NNW 19:07:28 49° NNW
Cosmos 2151 3.8 19:06:18 10° SSW 19:10:27 50° WNW 19:14:39 10° N
Meteor 2-10 Rocket 3.8 19:07:49 10° N 19:11:38 43° NE 19:11:38 43° NE
Thor Agena Rocket 3.5 19:12:21 42° NE 19:13:59 62° ESE 19:19:07 10° S
Cosmos 304 Rocket 4.3 19:10:45 10° S 19:14:11 40° SSE 19:14:11 40° SSE
ALOS 4.3 19:12:02 10° SSW 19:16:04 28° W 19:20:07 10° NW
ERS-2 3.7 19:14:27 10° SSW 19:17:52 36° W 19:21:19 10° NNW
Cosmos 909 Rocket 4.5 19:13:51 10° NW 19:20:29 62° WSW 19:26:37 10° SSE
Cosmos 1934 Rocket 3.9 19:17:02 10° N 19:23:27 85° E 19:29:49 10° S
Cosmos 1340 3.6 19:27:16 10° NNW 19:30:55 47° W 19:31:20 45° WSW
CZ-4C R/B 2.1 19:26:47 10° SSW 19:31:21 62° SSE 19:31:21 62° SSE
Cosmos 1605 Rocket 3.8 19:25:48 10° N 19:31:55 68° E 19:32:52 59° SE
Lacrosse 5 2.2 19:36:47 10° SW 19:40:56 59° SSW 19:40:56 59° SSW
Cosmos 1898 Rocket 4.3 19:53:11 10° NNW 19:58:18 49° WSW 19:59:21 43° SW
Cosmos 1980 Rocket 4.1 19:54:26 10° NNW 19:55:59 18° N 19:55:59 18° N
ATLAS 5 CENTAUR R/B 4.4 20:03:14 10° NNW 20:04:16 14° N 20:04:16 14° N
Cosmos 2082 Rocket 3.7 20:04:21 10° SSW 20:06:43 26° SSW 20:06:43 26° SSW
